Location: Lac Lasalle
(46.0398°N, 74.1576°W)
Time: 06:20:45
(UTC-05:00)

AO-73 - Pass Details

Date: 14 December 2019
Orbit: 581 x 664 km, 97.6° (Epoch: 17 January)

Event Time Altitude Azimuth Distance (km) Brightness Sun altitude
Rises 16:44:21 0° 144° (SE) 2,962 ? -5.7°
Reaches altitude 10° 16:46:42 10° 136° (SE) 2,045 ? -6.1°
Maximum altitude 16:50:47 37° 70° (ENE) 1,002 ? -6.7°
Drops below altitude 10° 16:54:49 10° 3° (N) 2,015 ? -7.4°
Sets 16:57:07 0° 355° (N) 2,912 ? -7.7°
